| time (UTC) | temp C | wind direction | speed KPH | gust KPH | rain 1hr cm | rain 24hr cm | rain mn cm | humidity % | barometer mb |
| 20260510054519 | 21 | 343 | 0.0 | 1.6 | 0.00 | 0.00 | 0.00 | 81 | 1009.3 |
| 20260510053017 | 21 | 343 | 0.0 | 0.0 | 0.00 | 0.00 | 0.00 | 80 | 1009.2 |
| 20260510051515 | 21 | 343 | 0.0 | 1.6 | 0.00 | 0.00 | 0.00 | 79 | 1009.1 |
| 20260510050012 | 22 | 335 | 0.0 | 0.0 | 0.00 | 0.00 | 0.00 | 79 | 1009.0 |
| 20260510044512 | 22 | 335 | 0.0 | 1.6 | 0.00 | 0.00 | 0.00 | 78 | 1008.9 |
| 20260510043011 | 22 | 82 | 1.6 | 6.4 | 0.00 | 0.00 | 0.00 | 75 | 1008.8 |
| 20260510041511 | 23 | 75 | 0.0 | 0.0 | 0.00 | 0.00 | 0.00 | 75 | 1008.7 |
| 20260510040015 | 23 | 75 | 1.6 | 4.8 | 0.00 | 0.00 | 0.00 | 74 | 1008.7 |
| 20260510034509 | 23 | 82 | 1.6 | 4.8 | 0.00 | 0.00 | 0.00 | 72 | 1008.7 |
| 20260510033011 | 24 | 73 | 1.6 | 6.4 | 0.00 | 0.00 | 0.00 | 71 | 1008.6 |
| 20260510031515 | 24 | 92 | 3.2 | 9.7 | 0.00 | 0.00 | 0.00 | 70 | 1008.5 |
| 20260510030011 | 25 | 143 | 3.2 | 8.0 | 0.00 | 0.00 | 0.00 | 68 | 1008.4 |
| 20260510024507 | 25 | 85 | 3.2 | 8.0 | 0.00 | 0.00 | 0.00 | 67 | 1008.2 |
| 20260510023007 | 26 | 94 | 4.8 | 9.7 | 0.00 | 0.00 | 0.00 | 65 | 1008.0 |
| 20260510021509 | 26 | 81 | 3.2 | 8.0 | 0.00 | 0.00 | 0.00 | 63 | 1007.8 |
| 20260510020007 | 27 | 86 | 3.2 | 8.0 | 0.00 | 0.00 | 0.00 | 62 | 1007.5 |
| 20260510014507 | 27 | 93 | 6.4 | 12.9 | 0.00 | 0.00 | 0.00 | 60 | 1007.2 |
| 20260510013004 | 27 | 92 | 6.4 | 11.3 | 0.00 | 0.00 | 0.00 | 61 | 1006.9 |
| 20260510011504 | 28 | 98 | 4.8 | 11.3 | 0.00 | 0.00 | 0.00 | 59 | 1006.7 |
| 20260510010003 | 29 | 66 | 4.8 | 11.3 | 0.00 | 0.00 | 0.00 | 56 | 1006.5 |
| 20260510004501 | 31 | 77 | 4.8 | 11.3 | 0.00 | 0.00 | 0.00 | 49 | 1006.2 |
| 20260510003106 | 32 | 109 | 0.0 | 1.6 | 0.00 | 0.00 | 0.00 | 42 | 1006.0 |
| 20260510001600 | 32 | 199 | 0.0 | 4.8 | 0.00 | 0.00 | 0.00 | 42 | 1006.0 |
| 20260510000100 | 33 | 131 | 0.0 | 4.8 | 0.00 | 0.00 | 0.00 | 37 | 1006.0 |
| 20260509234605 | 33 | 270 | 0.0 | 4.8 | 0.00 | 0.00 | 0.00 | 35 | 1006.0 |
| 20260509233057 | 33 | 196 | 0.0 | 4.8 | 0.00 | 0.00 | 0.00 | 35 | 1006.0 |
| 20260509231558 | 33 | 262 | 0.0 | 6.4 | 0.00 | 0.00 | 0.00 | 33 | 1006.0 |
| 20260509230056 | 33 | 267 | 1.6 | 4.8 | 0.00 | 0.00 | 0.00 | 39 | 1006.0 |
| 20260509224559 | 33 | 211 | 3.2 | 8.0 | 0.00 | 0.00 | 0.00 | 42 | 1006.1 |
| 20260509223051 | 33 | 225 | 1.6 | 9.7 | 0.00 | 0.00 | 0.00 | 40 | 1006.0 |
| 20260509221602 | 33 | 273 | 1.6 | 8.0 | 0.00 | 0.00 | 0.00 | 41 | 1006.2 |
| 20260509220047 | 32 | 166 | 1.6 | 6.4 | 0.00 | 0.00 | 0.00 | 43 | 1006.2 |
| 20260509214548 | 33 | 293 | 3.2 | 9.7 | 0.00 | 0.00 | 0.00 | 43 | 1006.3 |
| 20260509213045 | 32 | 208 | 4.8 | 9.7 | 0.00 | 0.00 | 0.00 | 42 | 1006.3 |
| 20260509211545 | 33 | 272 | 1.6 | 12.9 | 0.00 | 0.00 | 0.00 | 42 | 1006.5 |
| 20260509210038 | 32 | 244 | 3.2 | 8.0 | 0.00 | 0.00 | 0.00 | 46 | 1006.8 |
| 20260509204536 | 32 | 283 | 4.8 | 11.3 | 0.00 | 0.00 | 0.00 | 45 | 1007.0 |
| 20260509203033 | 31 | 241 | 4.8 | 12.9 | 0.00 | 0.00 | 0.00 | 49 | 1007.1 |
| 20260509201536 | 31 | 234 | 1.6 | 11.3 | 0.00 | 0.00 | 0.00 | 52 | 1007.3 |
| 20260509200029 | 31 | 192 | 6.4 | 12.9 | 0.00 | 0.00 | 0.00 | 53 | 1007.8 |
| 20260509194526 | 31 | 265 | 3.2 | 14.5 | 0.00 | 0.00 | 0.00 | 55 | 1008.0 |
| 20260509193022 | 30 | 251 | 3.2 | 14.5 | 0.00 | 0.00 | 0.00 | 55 | 1008.4 |
| 20260509191521 | 30 | 2 | 3.2 | 11.3 | 0.00 | 0.00 | 0.00 | 56 | 1008.5 |
| 20260509190021 | 30 | 252 | 4.8 | 11.3 | 0.00 | 0.00 | 0.00 | 60 | 1008.5 |
| 20260509184522 | 29 | 245 | 6.4 | 14.5 | 0.00 | 0.00 | 0.00 | 63 | 1008.6 |
| 20260509183015 | 29 | 262 | 8.0 | 17.7 | 0.00 | 0.00 | 0.00 | 59 | 1008.9 |
| 20260509181512 | 29 | 224 | 3.2 | 9.7 | 0.00 | 0.00 | 0.00 | 65 | 1009.1 |
| 20260509180008 | 28 | 319 | 4.8 | 8.0 | 0.00 | 0.00 | 0.00 | 64 | 1009.3 |
| 20260509174506 | 28 | 122 | 3.2 | 8.0 | 0.00 | 0.00 | 0.00 | 68 | 1009.6 |
| 20260509173003 | 27 | 274 | 4.8 | 8.0 | 0.00 | 0.00 | 0.00 | 71 | 1009.7 |
| 20260509171559 | 26 | 241 | 1.6 | 4.8 | 0.00 | 0.00 | 0.00 | 75 | 1009.9 |
| 20260509170107 | 26 | 285 | 0.0 | 4.8 | 0.00 | 0.00 | 0.00 | 76 | 1010.1 |
| 20260509164600 | 26 | 161 | 1.6 | 6.4 | 0.00 | 0.00 | 0.00 | 74 | 1010.2 |
| 20260509163054 | 26 | 111 | 1.6 | 6.4 | 0.00 | 0.00 | 0.00 | 78 | 1010.2 |
| 20260509161558 | 25 | 67 | 1.6 | 8.0 | 0.00 | 0.00 | 0.00 | 80 | 1010.3 |
| 20260509160052 | 25 | 256 | 1.6 | 6.4 | 0.00 | 0.00 | 0.00 | 80 | 1010.3 |
| 20260509154548 | 25 | 116 | 4.8 | 11.3 | 0.00 | 0.00 | 0.00 | 81 | 1010.6 |
| 20260509153052 | 24 | 269 | 1.6 | 11.3 | 0.00 | 0.00 | 0.00 | 84 | 1010.4 |
| 20260509151542 | 23 | 177 | 4.8 | 9.7 | 0.00 | 0.00 | 0.00 | 85 | 1010.3 |
| 20260509150037 | 22 | 169 | 3.2 | 9.7 | 0.00 | 0.00 | 0.00 | 86 | 1010.1 |
| 20260509144534 | 22 | 249 | 1.6 | 8.0 | 0.00 | 0.00 | 0.00 | 87 | 1010.0 |
| 20260509143034 | 22 | 256 | 3.2 | 8.0 | 0.00 | 0.00 | 0.00 | 88 | 1009.7 |
| 20260509141533 | 22 | 307 | 4.8 | 9.7 | 0.00 | 0.00 | 0.00 | 88 | 1010.3 |
| 20260509140027 | 22 | 111 | 0.0 | 4.8 | 0.00 | 0.00 | 0.00 | 90 | 1010.4 |
| 20260509134524 | 21 | 92 | 0.0 | 0.0 | 0.00 | 0.00 | 0.00 | 90 | 1010.3 |
| 20260509133022 | 21 | 299 | 0.0 | 0.0 | 0.00 | 0.00 | 0.00 | 91 | 1010.3 |
| 20260509131525 | 21 | 9 | 0.0 | 0.0 | 0.00 | 0.00 | 0.00 | 93 | 1010.1 |
| 20260509130019 | 21 | 322 | 0.0 | 3.2 | 0.00 | 0.00 | 0.00 | 94 | 1010.1 |
| 20260509124521 | 21 | 87 | 0.0 | 3.2 | 0.00 | 0.00 | 0.00 | 95 | 1010.2 |
| 20260509123016 | 21 | 145 | 0.0 | 0.0 | 0.00 | 0.00 | 0.00 | 95 | 1009.9 |
| 20260509121523 | 21 | 324 | 0.0 | 3.2 | 0.00 | 0.00 | 0.00 | 96 | 1010.2 |
| 20260509120016 | 21 | 88 | 0.0 | 1.6 | 0.00 | 0.00 | 0.00 | 96 | 1010.2 |
| 20260509114523 | 21 | 303 | 0.0 | 0.0 | 0.00 | 0.00 | 0.00 | 96 | 1010.2 |
| 20260509113013 | 21 | 342 | 0.0 | 4.8 | 0.00 | 0.00 | 0.00 | 96 | 1010.0 |
| 20260509111513 | 21 | 49 | 0.0 | 3.2 | 0.00 | 0.00 | 0.00 | 96 | 1010.3 |
| 20260509110013 | 21 | 35 | 0.0 | 4.8 | 0.00 | 0.00 | 0.00 | 96 | 1010.0 |
| 20260509104511 | 21 | 102 | 0.0 | 3.2 | 0.00 | 0.00 | 0.00 | 95 | 1009.5 |
| 20260509103010 | 21 | 83 | 0.0 | 4.8 | 0.00 | 0.00 | 0.00 | 96 | 1009.5 |
| 20260509101510 | 21 | 65 | 0.0 | 0.0 | 0.00 | 0.00 | 0.00 | 96 | 1009.6 |
| 20260509100019 | 21 | 7 | 0.0 | 0.0 | 0.00 | 0.00 | 0.00 | 96 | 1009.3 |
| 20260509094512 | 21 | 7 | 0.0 | 0.0 | 0.00 | 0.00 | 0.00 | 95 | 1009.0 |
| 20260509093010 | 21 | 7 | 0.0 | 0.0 | 0.00 | 0.00 | 0.00 | 95 | 1009.0 |
| 20260509091510 | 21 | 7 | 0.0 | 0.0 | 0.00 | 0.00 | 0.00 | 95 | 1008.6 |
| 20260509090007 | 21 | 7 | 0.0 | 0.0 | 0.00 | 0.00 | 0.00 | 95 | 1008.6 |
| 20260509084511 | 21 | 7 | 0.0 | 0.0 | 0.00 | 0.00 | 0.00 | 95 | 1008.9 |
| 20260509083004 | 21 | 34 | 0.0 | 1.6 | 0.00 | 0.00 | 0.00 | 95 | 1009.2 |
| 20260509081503 | 21 | 73 | 0.0 | 0.0 | 0.00 | 0.00 | 0.00 | 95 | 1009.3 |
| 20260509080002 | 21 | 73 | 0.0 | 0.0 | 0.00 | 0.00 | 0.00 | 95 | 1009.4 |
| 20260509074502 | 21 | 73 | 0.0 | 0.0 | 0.00 | 0.00 | 0.00 | 95 | 1009.1 |
| 20260509073001 | 21 | 73 | 0.0 | 0.0 | 0.00 | 0.00 | 0.00 | 94 | 1008.9 |
| 20260509071608 | 21 | 144 | 0.0 | 1.6 | 0.00 | 0.00 | 0.00 | 94 | 1009.1 |
| 20260509070100 | 21 | 152 | 0.0 | 0.0 | 0.00 | 0.00 | 0.00 | 94 | 1009.2 |
| 20260509064617 | 21 | 83 | 0.0 | 3.2 | 0.00 | 0.00 | 0.00 | 94 | 1009.1 |
| 20260509063057 | 21 | 88 | 0.0 | 4.8 | 0.00 | 0.00 | 0.00 | 94 | 1009.4 |
| 20260509061622 | 21 | 216 | 1.6 | 6.4 | 0.00 | 0.00 | 0.00 | 94 | 1009.6 |
| 20260509060055 | 20 | 78 | 0.0 | 3.2 | 0.00 | 0.00 | 0.00 | 94 | 1009.4 |